FW9002 Weather Reports


time (UTC)temp
C
wind
direction
speed
KPH
gust
KPH
rain 1hr
cm
rain 24hr
cm
rain mn
cm
humidity
%
barometer
mb
20260902184724 34 296 3.2 3.2 0.00 0.00 0.00 39 1015.7
20260902184220 34 19 4.8 8.0 0.00 0.00 0.00 39 1015.7
20260902183716 33 258 3.2 1.6 0.00 0.00 0.00 42 1015.7
20260902183212 34 291 3.2 4.8 0.00 0.00 0.00 41 1016.0
20260902182708 34 357 6.4 8.0 0.00 0.00 0.00 40 1016.0
20260902182204 33 312 3.2 4.8 0.00 0.00 0.00 42 1016.1
20260902181659 33 303 4.8 4.8 0.00 0.00 0.00 41 1015.8
20260902181154 33 250 4.8 8.0 0.00 0.00 0.00 41 1016.0
20260902180654 33 306 3.2 4.8 0.00 0.00 0.00 43 1016.3
20260902180150 33 234 3.2 4.8 0.00 0.00 0.00 41 1016.0
20260902175649 33 276 1.6 3.2 0.00 0.00 0.00 42 1016.2
20260902175145 33 293 4.8 4.8 0.00 0.00 0.00 41 1016.2
20260902174641 33 284 4.8 8.0 0.00 0.00 0.00 42 1016.4
20260902174137 32 15 4.8 4.8 0.00 0.00 0.00 43 1016.4
20260902173632 33 327 6.4 9.7 0.00 0.00 0.00 44 1016.4
20260902173127 32 255 3.2 3.2 0.00 0.00 0.00 44 1016.3
20260902172621 33 171 3.2 1.6 0.00 0.00 0.00 44 1016.4
20260902172121 33 270 1.6 3.2 0.00 0.00 0.00 44 1016.7
20260902171616 33 243 3.2 3.2 0.00 0.00 0.00 43 1016.2
20260902171112 33 219 4.8 3.2 0.00 0.00 0.00 43 1016.3
20260902170608 33 85 0.0 0.0 0.00 0.00 0.00 44 1016.2
20260902170103 33 96 0.0 0.0 0.00 0.00 0.00 45 1016.6
20260902165603 33 79 3.2 1.6 0.00 0.00 0.00 44 1016.7
20260902165057 32 96 1.6 1.6 0.00 0.00 0.00 45 1016.7
20260902164553 32 134 3.2 4.8 0.00 0.00 0.00 45 1016.6
20260902164051 32 119 1.6 1.6 0.00 0.00 0.00 44 1016.7
20260902163547 33 191 6.4 8.0 0.00 0.00 0.00 44 1016.6
20260902163045 33 124 1.6 1.6 0.00 0.00 0.00 45 1016.9
20260902162539 32 94 0.0 0.0 0.00 0.00 0.00 46 1016.7
20260902162035 32 133 3.2 4.8 0.00 0.00 0.00 46 1016.8
20260902161535 32 82 1.6 1.6 0.00 0.00 0.00 47 1016.9
20260902161031 32 83 0.0 0.0 0.00 0.00 0.00 46 1016.9
20260902160526 32 97 0.0 0.0 0.00 0.00 0.00 47 1016.6
20260902160021 32 108 1.6 1.6 0.00 0.00 0.00 48 1016.7
20260902155514 31 105 0.0 0.0 0.00 0.00 0.00 47 1016.9
20260902155013 31 86 0.0 0.0 0.00 0.00 0.00 48 1016.6
20260902154509 31 91 3.2 3.2 0.00 0.00 0.00 51 1016.9
20260902154003 30 70 3.2 3.2 0.00 0.00 0.00 52 1016.8
20260902153502 30 84 1.6 1.6 0.00 0.00 0.00 53 1016.8
20260902152957 30 57 3.2 3.2 0.00 0.00 0.00 53 1016.9
20260902152454 30 71 1.6 1.6 0.00 0.00 0.00 52 1016.7
20260902151949 30 91 0.0 0.0 0.00 0.00 0.00 52 1016.7
20260902151445 30 104 0.0 1.6 0.00 0.00 0.00 54 1016.8
20260902150944 28 108 1.6 1.6 0.00 0.00 0.00 56 1016.6
20260902150441 28 63 3.2 3.2 0.00 0.00 0.00 56 1016.4
20260902145940 28 81 3.2 3.2 0.00 0.00 0.00 57 1016.6
20260902145436 28 83 1.6 1.6 0.00 0.00 0.00 59 1016.6
20260902144930 27 65 1.6 1.6 0.00 0.00 0.00 61 1016.3
20260902144426 27 73 1.6 1.6 0.00 0.00 0.00 63 1016.3
20260902143926 28 77 1.6 1.6 0.00 0.00 0.00 60 1016.4
20260902143421 28 88 3.2 3.2 0.00 0.00 0.00 57 1016.4
20260902142917 28 89 0.0 0.0 0.00 0.00 0.00 60 1016.4
20260902142413 28 90 0.0 0.0 0.00 0.00 0.00 60 1016.6
20260902141908 27 90 0.0 0.0 0.00 0.00 0.00 62 1016.4
20260902141403 27 90 0.0 0.0 0.00 0.00 0.00 62 1016.2
20260902140903 27 90 0.0 0.0 0.00 0.00 0.00 61 1016.3
20260902140358 28 89 1.6 1.6 0.00 0.00 0.00 59 1016.1
20260902135858 27 89 0.0 0.0 0.00 0.00 0.00 62 1016.2
20260902135354 26 90 0.0 0.0 0.00 0.00 0.00 66 1016.3
20260902134852 25 89 0.0 0.0 0.00 0.00 0.00 68 1016.1
20260902134349 25 89 0.0 0.0 0.00 0.00 0.00 70 1016.1
20260902133843 24 89 0.0 0.0 0.00 0.00 0.00 72 1016.2
20260902133343 23 89 0.0 0.0 0.00 0.00 0.00 74 1016.1
20260902132838 23 89 0.0 0.0 0.00 0.00 0.00 75 1015.9
20260902132333 23 89 0.0 0.0 0.00 0.00 0.00 76 1015.8
20260902131829 23 90 0.0 0.0 0.00 0.00 0.00 76 1015.7
20260902131326 23 90 0.0 0.0 0.00 0.00 0.00 77 1015.8
20260902130825 22 90 0.0 0.0 0.00 0.00 0.00 79 1015.7
20260902130321 22 90 0.0 0.0 0.00 0.00 0.00 78 1015.7
20260902125816 22 90 0.0 0.0 0.00 0.00 0.00 78 1015.8
20260902125312 22 90 0.0 0.0 0.00 0.00 0.00 78 1015.6
20260902124808 23 90 0.0 0.0 0.00 0.00 0.00 78 1015.6
20260902124303 23 90 0.0 0.0 0.00 0.00 0.00 78 1015.8
20260902123758 23 90 0.0 0.0 0.00 0.00 0.00 78 1015.6
20260902123254 23 90 1.6 1.6 0.00 0.00 0.00 77 1015.6
20260902122753 23 90 0.0 0.0 0.00 0.00 0.00 77 1015.8
20260902122249 23 90 0.0 0.0 0.00 0.00 0.00 76 1015.8
20260902121748 23 89 1.6 1.6 0.00 0.00 0.00 77 1015.6
20260902121244 23 90 0.0 0.0 0.00 0.00 0.00 77 1015.5
20260902120739 23 89 0.0 0.0 0.00 0.00 0.00 77 1015.6
20260902120235 23 89 1.6 1.6 0.00 0.00 0.00 77 1015.4
20260902115730 23 87 1.6 1.6 0.00 0.00 0.00 77 1015.5
20260902115226 23 82 0.0 0.0 0.00 0.00 0.00 77 1015.6
20260902114722 23 82 1.6 1.6 0.00 0.00 0.00 78 1015.9
20260902114217 23 82 0.0 0.0 0.00 0.00 0.00 77 1015.5
20260902113712 23 82 0.0 0.0 0.00 0.00 0.00 77 1015.7
20260902113207 23 81 0.0 0.0 0.00 0.00 0.00 76 1015.5
20260902112707 23 81 0.0 1.6 0.00 0.00 0.00 76 1015.7
20260902112204 23 75 1.6 1.6 0.00 0.00 0.00 76 1015.3
20260902111659 23 83 1.6 1.6 0.00 0.00 0.00 76 1015.5
20260902111155 23 85 1.6 1.6 0.00 0.00 0.00 76 1015.6
20260902110650 23 86 1.6 1.6 0.00 0.00 0.00 76 1015.6
20260902110147 23 86 1.6 1.6 0.00 0.00 0.00 76 1015.6
20260902105646 23 86 0.0 0.0 0.00 0.00 0.00 76 1015.6
20260902105142 23 87 1.6 1.6 0.00 0.00 0.00 76 1015.7
20260902104637 23 88 1.6 1.6 0.00 0.00 0.00 75 1015.5
20260902104132 23 88 0.0 1.6 0.00 0.00 0.00 75 1015.5
20260902103631 23 88 1.6 1.6 0.00 0.00 0.00 76 1015.7
20260902103127 23 89 0.0 0.0 0.00 0.00 0.00 75 1015.7
20260902102623 23 89 0.0 0.0 0.00 0.00 0.00 75 1015.4
20260902102120 23 89 0.0 0.0 0.00 0.00 0.00 75 1015.6
20260902101616 23 89 0.0 0.0 0.00 0.00 0.00 74 1015.5
20260902101115 23 90 0.0 0.0 0.00 0.00 0.00 74 1015.7
20260902100609 23 90 0.0 0.0 0.00 0.00 0.00 74 1015.6
20260902100104 23 90 1.6 1.6 0.00 0.00 0.00 74 1015.5
20260902095603 23 89 0.0 0.0 0.00 0.00 0.00 75 1015.6
20260902095102 23 75 1.6 1.6 0.00 0.00 0.00 75 1015.5
20260902094558 23 67 1.6 1.6 0.00 0.00 0.00 74 1015.5
20260902094054 24 67 0.0 0.0 0.00 0.00 0.00 74 1015.6
20260902093553 24 100 0.0 0.0 0.00 0.00 0.00 74 1015.6
20260902093048 23 101 1.6 1.6 0.00 0.00 0.00 74 1015.5
20260902092538 23 101 0.0 0.0 0.00 0.00 0.00 75 1015.7
20260902092032 23 101 1.6 0.0 0.00 0.00 0.00 75 1015.7
20260902091528 23 101 0.0 0.0 0.00 0.00 0.00 75 1015.6
20260902091024 24 101 0.0 0.0 0.00 0.00 0.00 74 1015.4
20260902090520 24 101 0.0 0.0 0.00 0.00 0.00 74 1015.4
20260902090018 24 101 1.6 1.6 0.00 0.00 0.00 74 1015.5
20260902085513 24 101 0.0 0.0 0.00 0.00 0.00 74 1015.6
20260902085008 24 101 0.0 0.0 0.00 0.00 0.00 73 1015.3
20260902084504 24 101 0.0 0.0 0.00 0.00 0.00 73 1015.4
20260902083959 24 101 0.0 0.0 0.00 0.00 0.00 73 1015.2
20260902083454 24 101 0.0 0.0 0.00 0.00 0.00 72 1015.6
20260902082949 24 101 0.0 0.0 0.00 0.00 0.00 72 1015.3
20260902082444 25 101 0.0 0.0 0.00 0.00 0.00 71 1015.0
20260902081941 25 101 0.0 0.0 0.00 0.00 0.00 71 1015.3
20260902081437 25 101 0.0 0.0 0.00 0.00 0.00 70 1015.3
20260902080932 25 101 0.0 0.0 0.00 0.00 0.00 70 1015.2
20260902080428 25 101 1.6 1.6 0.00 0.00 0.00 70 1015.5
20260902075927 25 101 1.6 1.6 0.00 0.00 0.00 70 1014.9
20260902075424 25 101 1.6 1.6 0.00 0.00 0.00 71 1015.3
20260902074919 25 90 0.0 0.0 0.00 0.00 0.00 70 1015.3
20260902074415 25 89 1.6 1.6 0.00 0.00 0.00 69 1015.0
20260902073909 25 89 0.0 0.0 0.00 0.00 0.00 69 1015.2
20260902073405 25 89 0.0 0.0 0.00 0.00 0.00 69 1015.2
20260902072901 25 89 0.0 0.0 0.00 0.00 0.00 68 1015.3
20260902072357 25 89 0.0 0.0 0.00 0.00 0.00 68 1015.3
20260902071853 25 89 0.0 0.0 0.00 0.00 0.00 68 1015.0
20260902071353 25 89 0.0 0.0 0.00 0.00 0.00 67 1015.4
20260902070849 25 89 0.0 0.0 0.00 0.00 0.00 67 1015.2
20260902070344 25 89 0.0 0.0 0.00 0.00 0.00 66 1015.0
20260902065842 25 89 0.0 0.0 0.00 0.00 0.00 66 1014.9
20260902065338 25 89 0.0 0.0 0.00 0.00 0.00 66 1014.9
20260902064833 26 89 0.0 0.0 0.00 0.00 0.00 66 1015.0
20260902064329 26 89 1.6 0.0 0.00 0.00 0.00 66 1014.9
20260902063819 26 90 0.0 0.0 0.00 0.00 0.00 65 1015.0
20260902063318 26 90 0.0 0.0 0.00 0.00 0.00 64 1015.2
20260902062813 26 96 1.6 1.6 0.00 0.00 0.00 64 1015.2
20260902062308 26 100 0.0 0.0 0.00 0.00 0.00 63 1015.2
20260902061807 26 105 0.0 0.0 0.00 0.00 0.00 63 1014.8
20260902061302 26 85 0.0 0.0 0.00 0.00 0.00 62 1015.0
20260902060759 26 104 0.0 0.0 0.00 0.00 0.00 62 1014.8
20260902060254 26 94 1.6 1.6 0.00 0.00 0.00 61 1015.2
20260902055750 26 93 0.0 0.0 0.00 0.00 0.00 61 1014.7
20260902055246 26 93 1.6 1.6 0.00 0.00 0.00 60 1015.0
20260902054741 26 104 0.0 0.0 0.00 0.00 0.00 60 1015.2
20260902054237 26 104 1.6 1.6 0.00 0.00 0.00 60 1014.9
20260902053732 26 109 0.0 0.0 0.00 0.00 0.00 61 1015.0
20260902053231 27 110 0.0 0.0 0.00 0.00 0.00 60 1015.2
20260902052731 27 110 0.0 0.0 0.00 0.00 0.00 59 1015.2
20260902052227 26 85 1.6 1.6 0.00 0.00 0.00 58 1015.0
20260902051726 26 53 0.0 0.0 0.00 0.00 0.00 60 1015.2
20260902051220 27 52 1.6 1.6 0.00 0.00 0.00 60 1015.2
20260902050715 27 52 0.0 0.0 0.00 0.00 0.00 59 1015.2
20260902050211 27 52 0.0 0.0 0.00 0.00 0.00 59 1015.2
20260902045710 27 52 0.0 0.0 0.00 0.00 0.00 57 1015.2
20260902045207 27 52 0.0 0.0 0.00 0.00 0.00 57 1015.2
20260902044702 27 52 0.0 0.0 0.00 0.00 0.00 57 1015.2
20260902044158 27 52 0.0 0.0 0.00 0.00 0.00 56 1014.8
20260902043652 28 52 0.0 0.0 0.00 0.00 0.00 56 1015.0
20260902043148 28 52 0.0 0.0 0.00 0.00 0.00 55 1015.0
20260902042647 28 40 3.2 3.2 0.00 0.00 0.00 53 1014.7
20260902042143 28 305 0.0 0.0 0.00 0.00 0.00 51 1014.7
20260902041642 28 305 0.0 1.6 0.00 0.00 0.00 50 1014.9
20260902041137 28 305 0.0 0.0 0.00 0.00 0.00 50 1014.9
20260902040636 28 270 1.6 3.2 0.00 0.00 0.00 50 1014.7
20260902040132 29 262 3.2 3.2 0.00 0.00 0.00 49 1014.8
20260902035630 29 277 1.6 1.6 0.00 0.00 0.00 50 1014.6
20260902035126 29 294 0.0 1.6 0.00 0.00 0.00 49 1014.6
20260902034625 29 284 1.6 1.6 0.00 0.00 0.00 49 1014.6
20260902034119 29 290 1.6 3.2 0.00 0.00 0.00 49 1014.3
20260902033618 29 258 0.0 0.0 0.00 0.00 0.00 50 1014.3
20260902033113 29 273 0.0 0.0 0.00 0.00 0.00 50 1014.1
20260902032612 29 266 0.0 0.0 0.00 0.00 0.00 49 1013.9
20260902032107 29 287 1.6 1.6 0.00 0.00 0.00 49 1014.0
20260902031607 29 257 0.0 0.0 0.00 0.00 0.00 49 1013.8
20260902031103 29 257 0.0 0.0 0.00 0.00 0.00 49 1013.6
20260902030558 29 294 1.6 1.6 0.00 0.00 0.00 49 1013.6
20260902030058 30 295 1.6 1.6 0.00 0.00 0.00 48 1013.4
20260902025558 30 296 0.0 0.0 0.00 0.00 0.00 48 1013.1
20260902025053 30 300 0.0 0.0 0.00 0.00 0.00 48 1013.0
20260902024549 30 250 1.6 1.6 0.00 0.00 0.00 47 1013.2
20260902024048 30 288 0.0 0.0 0.00 0.00 0.00 47 1013.1
20260902023544 30 289 0.0 0.0 0.00 0.00 0.00 46 1013.2
20260902023039 30 303 0.0 0.0 0.00 0.00 0.00 45 1013.1
20260902022533 30 285 3.2 3.2 0.00 0.00 0.00 45 1013.0
20260902022029 30 301 3.2 3.2 0.00 0.00 0.00 43 1012.9
20260902021525 30 293 1.6 1.6 0.00 0.00 0.00 43 1012.7
20260902021025 30 302 4.8 4.8 0.00 0.00 0.00 42 1012.7
20260902020520 31 300 1.6 1.6 0.00 0.00 0.00 42 1012.6
20260902020016 31 302 1.6 1.6 0.00 0.00 0.00 41 1012.7
20260902015512 31 281 3.2 3.2 0.00 0.00 0.00 41 1012.8
20260902015007 31 296 1.6 1.6 0.00 0.00 0.00 41 1012.6
20260902014503 31 286 4.8 4.8 0.00 0.00 0.00 40 1012.5
20260902013958 31 309 3.2 3.2 0.00 0.00 0.00 40 1012.7
20260902013453 31 280 4.8 4.8 0.00 0.00 0.00 40 1012.4
20260902012948 31 260 3.2 3.2 0.00 0.00 0.00 41 1012.5
20260902012444 31 329 3.2 3.2 0.00 0.00 0.00 40 1012.4
20260902011939 32 302 6.4 9.7 0.00 0.00 0.00 40 1012.5
20260902011435 32 11 1.6 1.6 0.00 0.00 0.00 41 1012.5
20260902010934 32 302 1.6 1.6 0.00 0.00 0.00 41 1012.5
20260902010429 32 304 6.4 9.7 0.00 0.00 0.00 40 1012.2
20260902005928 32 299 6.4 8.0 0.00 0.00 0.00 40 1012.2
20260902005427 33 296 4.8 4.8 0.00 0.00 0.00 38 1012.4
20260902004923 33 324 4.8 8.0 0.00 0.00 0.00 38 1012.6
20260902004423 33 336 1.6 1.6 0.00 0.00 0.00 38 1012.5
20260902003918 33 255 3.2 4.8 0.00 0.00 0.00 38 1012.4
20260902003413 33 359 3.2 3.2 0.00 0.00 0.00 37 1012.5
20260902002909 33 313 4.8 4.8 0.00 0.00 0.00 36 1012.5
20260902002409 33 350 6.4 8.0 0.00 0.00 0.00 36 1012.7
20260902001903 33 321 6.4 9.7 0.00 0.00 0.00 36 1012.7
20260902001358 33 304 4.8 4.8 0.00 0.00 0.00 36 1012.6
20260902000853 34 302 3.2 3.2 0.00 0.00 0.00 35 1012.5
20260902000353 35 274 3.2 4.8 0.00 0.00 0.00 34 1012.7
20260901235848 34 339 0.0 0.0 0.00 0.00 0.00 35 1012.5
20260901235343 34 249 3.2 4.8 0.00 0.00 0.00 35 1012.8
20260901234838 34 297 6.4 9.7 0.00 0.00 0.00 34 1012.6
20260901234332 34 303 6.4 8.0 0.00 0.00 0.00 34 1012.8
20260901233827 34 292 3.2 3.2 0.00 0.00 0.00 34 1012.9
20260901233323 34 306 4.8 4.8 0.00 0.00 0.00 35 1012.9
20260901232819 35 288 4.8 8.0 0.00 0.00 0.00 34 1012.9
20260901232313 35 335 3.2 8.0 0.00 0.00 0.00 34 1013.1
20260901231809 35 320 3.2 4.8 0.00 0.00 0.00 35 1013.0
20260901231305 34 254 4.8 8.0 0.00 0.00 0.00 35 1013.0
20260901230801 35 285 4.8 4.8 0.00 0.00 0.00 34 1013.1
20260901230300 35 18 6.4 9.7 0.00 0.00 0.00 35 1013.0
20260901225756 35 345 4.8 4.8 0.00 0.00 0.00 35 1013.0
20260901225250 35 270 4.8 4.8 0.00 0.00 0.00 36 1013.0
20260901224746 35 5 1.6 1.6 0.00 0.00 0.00 35 1013.1
20260901224242 35 349 1.6 1.6 0.00 0.00 0.00 36 1013.0
20260901223738 35 339 1.6 1.6 0.00 0.00 0.00 35 1013.2
20260901223238 35 299 3.2 3.2 0.00 0.00 0.00 34 1013.3
20260901222734 35 45 1.6 1.6 0.00 0.00 0.00 34 1013.3
20260901222230 35 273 4.8 3.2 0.00 0.00 0.00 33 1013.3
20260901221726 35 258 1.6 1.6 0.00 0.00 0.00 32 1013.4
20260901221222 34 324 6.4 9.7 0.00 0.00 0.00 34 1013.5
20260901220721 35 298 8.0 9.7 0.00 0.00 0.00 34 1013.5
20260901220221 35 305 6.4 8.0 0.00 0.00 0.00 33 1013.4
20260901215720 35 262 1.6 1.6 0.00 0.00 0.00 34 1013.6
20260901215214 34 288 8.0 9.7 0.00 0.00 0.00 34 1013.6
20260901214712 34 206 4.8 4.8 0.00 0.00 0.00 33 1013.6
20260901214207 34 15 3.2 3.2 0.00 0.00 0.00 34 1013.8
20260901213706 34 49 3.2 4.8 0.00 0.00 0.00 34 1013.8
20260901213201 34 16 3.2 3.2 0.00 0.00 0.00 36 1014.0
20260901212700 35 8 0.0 0.0 0.00 0.00 0.00 35 1014.1
20260901212157 35 284 3.2 3.2 0.00 0.00 0.00 34 1014.5
20260901211656 34 24 1.6 1.6 0.00 0.00 0.00 35 1014.4
20260901211153 34 309 3.2 4.8 0.00 0.00 0.00 36 1014.5
20260901210648 34 314 6.4 8.0 0.00 0.00 0.00 35 1014.2
20260901210144 34 297 4.8 8.0 0.00 0.00 0.00 36 1014.5
20260901205640 33 5 3.2 3.2 0.00 0.00 0.00 37 1014.5
20260901205140 34 41 4.8 4.8 0.00 0.00 0.00 36 1014.5
20260901204635 34 295 6.4 9.7 0.00 0.00 0.00 35 1014.7
20260901204130 34 309 4.8 4.8 0.00 0.00 0.00 36 1014.8
20260901203626 34 258 0.0 1.6 0.00 0.00 0.00 37 1015.2
20260901203125 34 13 1.6 1.6 0.00 0.00 0.00 37 1014.8
20260901202620 33 336 1.6 1.6 0.00 0.00 0.00 35 1014.9
20260901202116 33 300 1.6 1.6 0.00 0.00 0.00 35 1015.0
20260901201612 33 19 4.8 4.8 0.00 0.00 0.00 35 1015.4
20260901201111 33 294 4.8 4.8 0.00 0.00 0.00 36 1015.3
20260901200610 33 248 3.2 3.2 0.00 0.00 0.00 35 1015.2
20260901200105 33 262 1.6 3.2 0.00 0.00 0.00 37 1015.5
20260901195603 33 299 3.2 3.2 0.00 0.00 0.00 37 1015.3
20260901195103 33 356 1.6 1.6 0.00 0.00 0.00 37 1015.4
20260901194558 33 285 3.2 3.2 0.00 0.00 0.00 38 1015.4
20260901194054 33 233 3.2 3.2 0.00 0.00 0.00 37 1015.5
20260901193548 33 263 6.4 9.7 0.00 0.00 0.00 36 1015.7
20260901193043 32 208 1.6 1.6 0.00 0.00 0.00 37 1015.7
20260901192538 32 354 1.6 1.6 0.00 0.00 0.00 37 1016.0
20260901192033 32 230 4.8 8.0 0.00 0.00 0.00 37 1015.8
20260901191524 33 318 3.2 4.8 0.00 0.00 0.00 40 1015.8
20260901191020 32 166 0.0 0.0 0.00 0.00 0.00 37 1015.9
20260901190515 33 170 4.8 8.0 0.00 0.00 0.00 36 1016.0
20260901190014 32 96 1.6 1.6 0.00 0.00 0.00 40 1016.0
20260901185513 32 261 4.8 4.8 0.00 0.00 0.00 37 1016.1